| time (UTC) | temp C | wind direction | speed KPH | gust KPH | rain 1hr cm | rain 24hr cm | rain mn cm | humidity % | barometer mb |
| 20260508063348 | 5 | 118 | 0.0 | 0.0 | 0.00 | 0.00 | 0.00 | 92 | 1016.2 |
| 20260508062845 | 5 | 118 | 0.0 | 0.0 | 0.00 | 0.00 | 0.00 | 91 | 1016.2 |
| 20260508062343 | 5 | 118 | 0.0 | 0.0 | 0.00 | 0.00 | 0.00 | 91 | 1016.0 |
| 20260508061839 | 5 | 119 | 0.0 | 1.6 | 0.00 | 0.00 | 0.00 | 91 | 1015.9 |
| 20260508061337 | 5 | 118 | 0.0 | 0.0 | 0.00 | 0.00 | 0.00 | 91 | 1016.1 |
| 20260508060833 | 5 | 118 | 0.0 | 0.0 | 0.00 | 0.00 | 0.00 | 90 | 1016.1 |
| 20260508060331 | 5 | 119 | 0.0 | 0.0 | 0.00 | 0.00 | 0.00 | 90 | 1016.0 |
| 20260508055826 | 5 | 119 | 0.0 | 0.0 | 0.00 | 0.00 | 0.00 | 90 | 1016.1 |
| 20260508055324 | 5 | 119 | 0.0 | 0.0 | 0.00 | 0.00 | 0.00 | 90 | 1015.9 |
| 20260508054820 | 6 | 118 | 0.0 | 0.0 | 0.00 | 0.00 | 0.00 | 89 | 1016.0 |
| 20260508054318 | 6 | 119 | 0.0 | 0.0 | 0.00 | 0.00 | 0.00 | 89 | 1015.9 |
| 20260508053814 | 6 | 119 | 0.0 | 0.0 | 0.00 | 0.00 | 0.00 | 89 | 1015.9 |
| 20260508053312 | 6 | 119 | 0.0 | 1.6 | 0.00 | 0.00 | 0.00 | 89 | 1015.8 |
| 20260508052809 | 6 | 118 | 0.0 | 0.0 | 0.00 | 0.00 | 0.00 | 88 | 1015.5 |
| 20260508052307 | 6 | 118 | 0.0 | 0.0 | 0.00 | 0.00 | 0.00 | 87 | 1015.4 |
| 20260508051802 | 6 | 118 | 0.0 | 0.0 | 0.00 | 0.00 | 0.00 | 87 | 1015.5 |
| 20260508051257 | 6 | 118 | 0.0 | 0.0 | 0.00 | 0.00 | 0.00 | 87 | 1015.4 |
| 20260508050754 | 6 | 118 | 0.0 | 0.0 | 0.00 | 0.00 | 0.00 | 86 | 1015.4 |
| 20260508050252 | 6 | 119 | 0.0 | 0.0 | 0.00 | 0.00 | 0.00 | 86 | 1015.3 |
| 20260508045747 | 6 | 119 | 0.0 | 0.0 | 0.00 | 0.00 | 0.00 | 86 | 1015.0 |
| 20260508045245 | 6 | 109 | 0.0 | 0.0 | 0.00 | 0.00 | 0.00 | 86 | 1015.0 |
| 20260508044742 | 6 | 108 | 0.0 | 0.0 | 0.00 | 0.00 | 0.00 | 85 | 1014.9 |
| 20260508044239 | 6 | 108 | 0.0 | 0.0 | 0.00 | 0.00 | 0.00 | 85 | 1015.0 |
| 20260508043735 | 7 | 108 | 0.0 | 0.0 | 0.00 | 0.00 | 0.00 | 86 | 1015.0 |
| 20260508043233 | 7 | 108 | 0.0 | 0.0 | 0.00 | 0.00 | 0.00 | 85 | 1014.9 |
| 20260508042729 | 7 | 108 | 0.0 | 0.0 | 0.00 | 0.00 | 0.00 | 85 | 1014.9 |
| 20260508042226 | 7 | 108 | 0.0 | 0.0 | 0.00 | 0.00 | 0.00 | 84 | 1014.9 |
| 20260508041723 | 7 | 106 | 0.0 | 0.0 | 0.00 | 0.00 | 0.00 | 83 | 1014.8 |
| 20260508041220 | 7 | 126 | 0.0 | 0.0 | 0.00 | 0.00 | 0.00 | 83 | 1014.9 |
| 20260508040716 | 7 | 126 | 0.0 | 0.0 | 0.00 | 0.00 | 0.00 | 82 | 1014.7 |
| 20260508040214 | 7 | 126 | 0.0 | 0.0 | 0.00 | 0.00 | 0.00 | 81 | 1014.8 |
| 20260508035711 | 7 | 126 | 0.0 | 0.0 | 0.00 | 0.00 | 0.00 | 81 | 1014.5 |
| 20260508035208 | 8 | 133 | 0.0 | 1.6 | 0.00 | 0.00 | 0.00 | 80 | 1014.5 |
| 20260508034704 | 8 | 121 | 0.0 | 1.6 | 0.00 | 0.00 | 0.00 | 79 | 1014.6 |
| 20260508034202 | 8 | 120 | 0.0 | 1.6 | 0.00 | 0.00 | 0.00 | 79 | 1014.5 |
| 20260508033659 | 8 | 120 | 0.0 | 0.0 | 0.00 | 0.00 | 0.00 | 78 | 1014.7 |
| 20260508033157 | 8 | 120 | 0.0 | 1.6 | 0.00 | 0.00 | 0.00 | 78 | 1014.9 |
| 20260508032654 | 8 | 120 | 0.0 | 0.0 | 0.00 | 0.00 | 0.00 | 78 | 1014.7 |
| 20260508032151 | 8 | 100 | 1.6 | 1.6 | 0.00 | 0.00 | 0.00 | 78 | 1014.7 |
| 20260508031648 | 8 | 93 | 0.0 | 0.0 | 0.00 | 0.00 | 0.00 | 77 | 1014.3 |
| 20260508031144 | 8 | 93 | 0.0 | 0.0 | 0.00 | 0.00 | 0.00 | 76 | 1014.3 |
| 20260508030641 | 8 | 93 | 0.0 | 0.0 | 0.00 | 0.00 | 0.00 | 77 | 1014.1 |
| 20260508030139 | 9 | 93 | 0.0 | 0.0 | 0.00 | 0.00 | 0.00 | 75 | 1014.3 |
| 20260508025634 | 9 | 79 | 0.0 | 0.0 | 0.00 | 0.00 | 0.00 | 75 | 1014.4 |
| 20260508025132 | 9 | 93 | 0.0 | 0.0 | 0.00 | 0.00 | 0.00 | 74 | 1014.2 |
| 20260508024627 | 10 | 93 | 0.0 | 0.0 | 0.00 | 0.00 | 0.00 | 73 | 1014.1 |
| 20260508024125 | 10 | 93 | 0.0 | 0.0 | 0.00 | 0.00 | 0.00 | 71 | 1014.0 |
| 20260508023621 | 10 | 94 | 0.0 | 1.6 | 0.00 | 0.00 | 0.00 | 72 | 1014.1 |
| 20260508023119 | 10 | 94 | 0.0 | 0.0 | 0.00 | 0.00 | 0.00 | 71 | 1014.0 |
| 20260508022614 | 10 | 94 | 0.0 | 0.0 | 0.00 | 0.00 | 0.00 | 69 | 1014.0 |
| 20260508022112 | 11 | 94 | 0.0 | 0.0 | 0.00 | 0.00 | 0.00 | 68 | 1013.8 |
| 20260508021607 | 11 | 94 | 0.0 | 0.0 | 0.00 | 0.00 | 0.00 | 68 | 1013.6 |
| 20260508021103 | 11 | 94 | 0.0 | 0.0 | 0.00 | 0.00 | 0.00 | 65 | 1013.8 |
| 20260508020601 | 11 | 94 | 0.0 | 0.0 | 0.00 | 0.00 | 0.00 | 64 | 1013.6 |
| 20260508020059 | 11 | 93 | 0.0 | 0.0 | 0.00 | 0.00 | 0.00 | 62 | 1013.6 |
| 20260508015556 | 11 | 93 | 0.0 | 0.0 | 0.00 | 0.00 | 0.00 | 61 | 1013.1 |
| 20260508015053 | 12 | 93 | 0.0 | 0.0 | 0.00 | 0.00 | 0.00 | 61 | 1013.3 |
| 20260508014549 | 11 | 92 | 0.0 | 0.0 | 0.00 | 0.00 | 0.00 | 63 | 1013.0 |
| 20260508014045 | 11 | 80 | 0.0 | 1.6 | 0.00 | 0.00 | 0.00 | 65 | 1012.9 |
| 20260508013541 | 11 | 82 | 0.0 | 0.0 | 0.00 | 0.00 | 0.00 | 68 | 1013.0 |
| 20260508013039 | 11 | 78 | 1.6 | 3.2 | 0.00 | 0.00 | 0.00 | 66 | 1013.0 |
| 20260508012536 | 11 | 105 | 0.0 | 1.6 | 0.00 | 0.00 | 0.00 | 65 | 1013.0 |
| 20260508012034 | 11 | 103 | 0.0 | 0.0 | 0.00 | 0.00 | 0.00 | 65 | 1012.8 |
| 20260508011532 | 12 | 103 | 0.0 | 1.6 | 0.00 | 0.00 | 0.00 | 64 | 1012.6 |
| 20260508011029 | 12 | 109 | 0.0 | 1.6 | 0.00 | 0.00 | 0.00 | 63 | 1012.6 |
| 20260508010525 | 12 | 105 | 0.0 | 0.0 | 0.00 | 0.00 | 0.00 | 63 | 1012.5 |
| 20260508010023 | 12 | 106 | 0.0 | 0.0 | 0.00 | 0.00 | 0.00 | 62 | 1012.3 |
| 20260508005519 | 13 | 103 | 1.6 | 1.6 | 0.00 | 0.00 | 0.00 | 59 | 1012.4 |
| 20260508005016 | 13 | 157 | 0.0 | 0.0 | 0.00 | 0.00 | 0.00 | 58 | 1012.3 |
| 20260508004513 | 13 | 157 | 0.0 | 0.0 | 0.00 | 0.00 | 0.00 | 55 | 1012.3 |
| 20260508004009 | 13 | 158 | 0.0 | 0.0 | 0.00 | 0.00 | 0.00 | 53 | 1012.4 |
| 20260508003505 | 13 | 150 | 0.0 | 1.6 | 0.00 | 0.00 | 0.00 | 56 | 1012.6 |
| 20260508003003 | 13 | 123 | 0.0 | 0.0 | 0.00 | 0.00 | 0.00 | 55 | 1012.5 |
| 20260508002459 | 14 | 125 | 0.0 | 0.0 | 0.00 | 0.00 | 0.00 | 56 | 1012.4 |
| 20260508001955 | 14 | 137 | 0.0 | 0.0 | 0.00 | 0.00 | 0.00 | 54 | 1012.3 |
| 20260508001452 | 15 | 138 | 0.0 | 0.0 | 0.00 | 0.00 | 0.00 | 52 | 1012.4 |
| 20260508000948 | 15 | 155 | 0.0 | 0.0 | 0.00 | 0.00 | 0.00 | 50 | 1012.2 |
| 20260508000444 | 15 | 182 | 1.6 | 1.6 | 0.00 | 0.00 | 0.00 | 47 | 1012.0 |
| 20260507235941 | 15 | 149 | 0.0 | 1.6 | 0.00 | 0.00 | 0.00 | 47 | 1011.9 |
| 20260507235438 | 16 | 95 | 1.6 | 1.6 | 0.00 | 0.00 | 0.00 | 48 | 1012.0 |
| 20260507234936 | 16 | 172 | 1.6 | 3.2 | 0.00 | 0.00 | 0.00 | 47 | 1011.9 |
| 20260507234432 | 16 | 164 | 0.0 | 0.0 | 0.00 | 0.00 | 0.00 | 48 | 1011.7 |
| 20260507233929 | 16 | 278 | 3.2 | 3.2 | 0.00 | 0.00 | 0.00 | 46 | 1011.8 |
| 20260507233426 | 16 | 78 | 1.6 | 1.6 | 0.00 | 0.00 | 0.00 | 45 | 1011.8 |
| 20260507232924 | 16 | 271 | 3.2 | 4.8 | 0.00 | 0.00 | 0.00 | 47 | 1011.7 |
| 20260507232420 | 16 | 84 | 0.0 | 0.0 | 0.00 | 0.00 | 0.00 | 48 | 1011.5 |
| 20260507231918 | 16 | 212 | 3.2 | 3.2 | 0.00 | 0.00 | 0.00 | 45 | 1011.5 |
| 20260507231414 | 16 | 249 | 3.2 | 3.2 | 0.00 | 0.00 | 0.00 | 46 | 1011.6 |
| 20260507230910 | 17 | 283 | 3.2 | 3.2 | 0.00 | 0.00 | 0.00 | 46 | 1011.2 |
| 20260507230408 | 17 | 272 | 3.2 | 4.8 | 0.00 | 0.00 | 0.00 | 45 | 1011.2 |
| 20260507225908 | 17 | 324 | 3.2 | 4.8 | 0.00 | 0.00 | 0.00 | 44 | 1011.3 |
| 20260507225404 | 17 | 312 | 6.4 | 6.4 | 0.00 | 0.00 | 0.00 | 44 | 1011.1 |
| 20260507224900 | 18 | 191 | 1.6 | 1.6 | 0.00 | 0.00 | 0.00 | 44 | 1011.2 |
| 20260507224357 | 18 | 285 | 3.2 | 4.8 | 0.00 | 0.00 | 0.00 | 42 | 1011.2 |
| 20260507223853 | 17 | 291 | 3.2 | 4.8 | 0.00 | 0.00 | 0.00 | 42 | 1011.0 |
| 20260507223350 | 17 | 277 | 4.8 | 6.4 | 0.00 | 0.00 | 0.00 | 43 | 1011.0 |
| 20260507222847 | 17 | 283 | 4.8 | 4.8 | 0.00 | 0.00 | 0.00 | 44 | 1011.2 |
| 20260507222343 | 17 | 349 | 8.0 | 14.5 | 0.00 | 0.00 | 0.00 | 44 | 1010.8 |
| 20260507221840 | 17 | 331 | 8.0 | 11.3 | 0.00 | 0.00 | 0.00 | 45 | 1010.9 |
| 20260507221337 | 17 | 253 | 6.4 | 9.7 | 0.00 | 0.00 | 0.00 | 45 | 1010.7 |
| 20260507220833 | 18 | 289 | 1.6 | 1.6 | 0.00 | 0.00 | 0.00 | 46 | 1010.8 |
| 20260507220332 | 18 | 307 | 3.2 | 4.8 | 0.00 | 0.00 | 0.00 | 43 | 1010.8 |
| 20260507215828 | 18 | 294 | 8.0 | 9.7 | 0.00 | 0.00 | 0.00 | 43 | 1010.6 |
| 20260507215325 | 18 | 305 | 4.8 | 6.4 | 0.00 | 0.00 | 0.00 | 42 | 1010.7 |
| 20260507214822 | 18 | 239 | 1.6 | 3.2 | 0.00 | 0.00 | 0.00 | 46 | 1010.6 |
| 20260507214320 | 18 | 310 | 8.0 | 11.3 | 0.00 | 0.00 | 0.00 | 45 | 1010.6 |
| 20260507213819 | 18 | 3 | 4.8 | 6.4 | 0.00 | 0.00 | 0.00 | 46 | 1010.5 |
| 20260507213317 | 17 | 283 | 0.0 | 0.0 | 0.00 | 0.00 | 0.00 | 49 | 1010.6 |
| 20260507212814 | 18 | 264 | 6.4 | 11.3 | 0.00 | 0.00 | 0.00 | 45 | 1010.4 |
| 20260507212310 | 18 | 256 | 4.8 | 6.4 | 0.00 | 0.00 | 0.00 | 44 | 1010.5 |
| 20260507211806 | 18 | 330 | 4.8 | 6.4 | 0.00 | 0.00 | 0.00 | 50 | 1010.5 |
| 20260507211303 | 17 | 248 | 3.2 | 3.2 | 0.00 | 0.00 | 0.00 | 57 | 1010.5 |
| 20260507210800 | 17 | 278 | 3.2 | 3.2 | 0.00 | 0.00 | 0.00 | 57 | 1010.5 |
| 20260507210256 | 17 | 272 | 3.2 | 3.2 | 0.00 | 0.00 | 0.00 | 55 | 1010.3 |
| 20260507205753 | 18 | 302 | 1.6 | 1.6 | 0.00 | 0.00 | 0.00 | 56 | 1010.2 |
| 20260507205250 | 18 | 196 | 1.6 | 1.6 | 0.00 | 0.00 | 0.00 | 55 | 1010.3 |
| 20260507204746 | 17 | 289 | 3.2 | 3.2 | 0.00 | 0.00 | 0.00 | 57 | 1010.2 |
| 20260507204244 | 17 | 198 | 4.8 | 6.4 | 0.00 | 0.00 | 0.00 | 59 | 1010.2 |
| 20260507203742 | 17 | 170 | 1.6 | 1.6 | 0.00 | 0.00 | 0.00 | 60 | 1010.2 |
| 20260507203239 | 17 | 159 | 1.6 | 1.6 | 0.00 | 0.00 | 0.00 | 59 | 1010.3 |
| 20260507202735 | 17 | 244 | 3.2 | 3.2 | 0.00 | 0.00 | 0.00 | 58 | 1010.4 |
| 20260507202231 | 18 | 188 | 3.2 | 3.2 | 0.00 | 0.00 | 0.00 | 59 | 1010.3 |
| 20260507201726 | 18 | 191 | 3.2 | 4.8 | 0.00 | 0.00 | 0.00 | 55 | 1010.3 |
| 20260507201223 | 17 | 170 | 1.6 | 3.2 | 0.00 | 0.00 | 0.00 | 54 | 1010.5 |
| 20260507200720 | 18 | 229 | 4.8 | 4.8 | 0.00 | 0.00 | 0.00 | 56 | 1010.4 |
| 20260507200216 | 18 | 237 | 4.8 | 4.8 | 0.00 | 0.00 | 0.00 | 58 | 1010.5 |
| 20260507195712 | 17 | 199 | 1.6 | 1.6 | 0.00 | 0.00 | 0.00 | 58 | 1010.6 |
| 20260507195209 | 17 | 257 | 3.2 | 4.8 | 0.00 | 0.00 | 0.00 | 59 | 1010.7 |
| 20260507194706 | 16 | 157 | 0.0 | 1.6 | 0.00 | 0.00 | 0.00 | 59 | 1010.8 |
| 20260507194202 | 16 | 276 | 6.4 | 9.7 | 0.00 | 0.00 | 0.00 | 59 | 1011.0 |
| 20260507193659 | 16 | 197 | 3.2 | 3.2 | 0.00 | 0.00 | 0.00 | 63 | 1011.1 |
| 20260507193156 | 16 | 42 | 3.2 | 3.2 | 0.00 | 0.00 | 0.00 | 59 | 1011.2 |
| 20260507192652 | 16 | 287 | 3.2 | 3.2 | 0.00 | 0.00 | 0.00 | 59 | 1011.4 |
| 20260507192149 | 16 | 268 | 3.2 | 3.2 | 0.00 | 0.00 | 0.00 | 60 | 1011.5 |
| 20260507191645 | 16 | 221 | 3.2 | 3.2 | 0.00 | 0.00 | 0.00 | 61 | 1011.3 |
| 20260507191142 | 16 | 187 | 1.6 | 1.6 | 0.00 | 0.00 | 0.00 | 62 | 1011.4 |
| 20260507190639 | 16 | 158 | 0.0 | 1.6 | 0.00 | 0.00 | 0.00 | 61 | 1011.4 |
| 20260507190138 | 15 | 158 | 0.0 | 0.0 | 0.00 | 0.00 | 0.00 | 62 | 1011.5 |
| 20260507185636 | 15 | 185 | 1.6 | 1.6 | 0.00 | 0.00 | 0.00 | 64 | 1011.7 |
| 20260507185132 | 15 | 185 | 1.6 | 3.2 | 0.00 | 0.00 | 0.00 | 64 | 1011.9 |
| 20260507184630 | 15 | 118 | 0.0 | 0.0 | 0.00 | 0.00 | 0.00 | 66 | 1011.9 |
| 20260507184128 | 15 | 261 | 4.8 | 6.4 | 0.00 | 0.00 | 0.00 | 66 | 1012.0 |
| 20260507183624 | 15 | 172 | 1.6 | 3.2 | 0.00 | 0.00 | 0.00 | 69 | 1011.9 |
| 20260507183121 | 15 | 192 | 1.6 | 3.2 | 0.00 | 0.00 | 0.00 | 68 | 1012.0 |
| 20260507182617 | 15 | 325 | 1.6 | 1.6 | 0.00 | 0.00 | 0.00 | 71 | 1012.0 |
| 20260507182113 | 15 | 63 | 3.2 | 3.2 | 0.00 | 0.00 | 0.00 | 69 | 1011.8 |
| 20260507181610 | 15 | 111 | 0.0 | 1.6 | 0.00 | 0.00 | 0.00 | 70 | 1011.9 |
| 20260507181106 | 15 | 83 | 0.0 | 1.6 | 0.00 | 0.00 | 0.00 | 70 | 1011.8 |
| 20260507180603 | 15 | 99 | 0.0 | 0.0 | 0.00 | 0.00 | 0.00 | 68 | 1011.8 |
| 20260507180100 | 15 | 111 | 0.0 | 1.6 | 0.00 | 0.00 | 0.00 | 68 | 1011.9 |
| 20260507175556 | 15 | 109 | 0.0 | 1.6 | 0.00 | 0.00 | 0.00 | 69 | 1012.0 |
| 20260507175053 | 15 | 89 | 0.0 | 1.6 | 0.00 | 0.00 | 0.00 | 71 | 1011.6 |
| 20260507174550 | 15 | 95 | 1.6 | 1.6 | 0.00 | 0.00 | 0.00 | 69 | 1011.9 |
| 20260507174048 | 15 | 32 | 3.2 | 4.8 | 0.00 | 0.00 | 0.00 | 68 | 1012.0 |
| 20260507173545 | 15 | 52 | 4.8 | 6.4 | 0.00 | 0.00 | 0.00 | 69 | 1011.8 |
| 20260507173042 | 15 | 70 | 0.0 | 0.0 | 0.00 | 0.00 | 0.00 | 70 | 1012.0 |
| 20260507172538 | 15 | 87 | 0.0 | 1.6 | 0.00 | 0.00 | 0.00 | 70 | 1011.9 |
| 20260507172035 | 15 | 79 | 0.0 | 0.0 | 0.00 | 0.00 | 0.00 | 71 | 1012.0 |
| 20260507171530 | 15 | 54 | 1.6 | 1.6 | 0.00 | 0.00 | 0.00 | 71 | 1012.1 |
| 20260507171028 | 15 | 88 | 1.6 | 1.6 | 0.00 | 0.00 | 0.00 | 71 | 1012.2 |
| 20260507170524 | 15 | 114 | 0.0 | 0.0 | 0.00 | 0.00 | 0.00 | 74 | 1012.1 |
| 20260507170021 | 14 | 95 | 0.0 | 1.6 | 0.00 | 0.00 | 0.00 | 72 | 1011.9 |
| 20260507165517 | 14 | 55 | 1.6 | 1.6 | 0.00 | 0.00 | 0.00 | 71 | 1012.1 |
| 20260507165014 | 14 | 34 | 1.6 | 1.6 | 0.00 | 0.00 | 0.00 | 71 | 1012.1 |
| 20260507164510 | 14 | 272 | 0.0 | 0.0 | 0.00 | 0.00 | 0.00 | 72 | 1012.3 |
| 20260507164007 | 15 | 13 | 3.2 | 4.8 | 0.00 | 0.00 | 0.00 | 71 | 1012.1 |
| 20260507163504 | 15 | 356 | 1.6 | 3.2 | 0.00 | 0.00 | 0.00 | 71 | 1012.1 |
| 20260507163002 | 15 | 70 | 1.6 | 3.2 | 0.00 | 0.00 | 0.00 | 71 | 1012.1 |
| 20260507162457 | 15 | 66 | 0.0 | 1.6 | 0.00 | 0.00 | 0.00 | 72 | 1012.1 |
| 20260507161954 | 15 | 75 | 0.0 | 0.0 | 0.00 | 0.00 | 0.00 | 71 | 1011.9 |
| 20260507161450 | 15 | 81 | 1.6 | 1.6 | 0.00 | 0.00 | 0.00 | 71 | 1011.8 |
| 20260507160947 | 15 | 76 | 3.2 | 3.2 | 0.00 | 0.00 | 0.00 | 69 | 1011.9 |
| 20260507160443 | 15 | 66 | 1.6 | 3.2 | 0.00 | 0.00 | 0.00 | 71 | 1012.2 |
| 20260507155939 | 15 | 35 | 1.6 | 3.2 | 0.00 | 0.00 | 0.00 | 70 | 1012.1 |
| 20260507155435 | 15 | 84 | 0.0 | 0.0 | 0.00 | 0.00 | 0.00 | 70 | 1012.2 |
| 20260507154932 | 15 | 73 | 0.0 | 1.6 | 0.00 | 0.00 | 0.00 | 70 | 1012.2 |
| 20260507154429 | 15 | 74 | 1.6 | 1.6 | 0.00 | 0.00 | 0.00 | 70 | 1012.2 |
| 20260507153926 | 15 | 103 | 1.6 | 3.2 | 0.00 | 0.00 | 0.00 | 70 | 1012.4 |
| 20260507153423 | 15 | 23 | 3.2 | 3.2 | 0.00 | 0.00 | 0.00 | 69 | 1012.7 |
| 20260507152919 | 15 | 9 | 1.6 | 3.2 | 0.00 | 0.00 | 0.00 | 70 | 1012.4 |
| 20260507152415 | 15 | 43 | 1.6 | 1.6 | 0.00 | 0.00 | 0.00 | 70 | 1012.5 |
| 20260507151911 | 15 | 338 | 0.0 | 0.0 | 0.00 | 0.00 | 0.00 | 69 | 1012.4 |
| 20260507151408 | 15 | 60 | 0.0 | 0.0 | 0.00 | 0.00 | 0.00 | 69 | 1012.3 |
| 20260507150905 | 15 | 335 | 3.2 | 4.8 | 0.00 | 0.00 | 0.00 | 70 | 1012.4 |
| 20260507150402 | 15 | 114 | 0.0 | 1.6 | 0.00 | 0.00 | 0.00 | 71 | 1012.3 |
| 20260507145858 | 15 | 27 | 3.2 | 3.2 | 0.00 | 0.00 | 0.00 | 71 | 1012.2 |
| 20260507145354 | 15 | 338 | 6.4 | 9.7 | 0.00 | 0.00 | 0.00 | 71 | 1012.3 |
| 20260507144851 | 15 | 88 | 0.0 | 1.6 | 0.00 | 0.00 | 0.00 | 71 | 1012.3 |
| 20260507144348 | 15 | 91 | 1.6 | 1.6 | 0.00 | 0.00 | 0.00 | 73 | 1012.1 |
| 20260507143845 | 15 | 93 | 0.0 | 0.0 | 0.00 | 0.00 | 0.00 | 72 | 1012.1 |
| 20260507143343 | 15 | 108 | 1.6 | 1.6 | 0.00 | 0.00 | 0.00 | 72 | 1012.1 |
| 20260507142839 | 15 | 117 | 1.6 | 1.6 | 0.00 | 0.00 | 0.00 | 71 | 1012.1 |
| 20260507142335 | 15 | 82 | 1.6 | 1.6 | 0.00 | 0.00 | 0.00 | 72 | 1012.0 |
| 20260507141832 | 16 | 112 | 1.6 | 1.6 | 0.00 | 0.00 | 0.00 | 71 | 1012.2 |
| 20260507141328 | 16 | 64 | 1.6 | 1.6 | 0.00 | 0.00 | 0.00 | 72 | 1012.1 |
| 20260507140825 | 16 | 54 | 1.6 | 1.6 | 0.00 | 0.00 | 0.00 | 70 | 1012.1 |
| 20260507140322 | 16 | 6 | 3.2 | 3.2 | 0.00 | 0.00 | 0.00 | 70 | 1012.0 |
| 20260507135820 | 16 | 141 | 0.0 | 1.6 | 0.00 | 0.00 | 0.00 | 72 | 1011.7 |
| 20260507135316 | 16 | 79 | 0.0 | 1.6 | 0.00 | 0.00 | 0.00 | 71 | 1012.0 |
| 20260507134814 | 16 | 43 | 3.2 | 3.2 | 0.00 | 0.00 | 0.00 | 72 | 1012.2 |
| 20260507134309 | 16 | 339 | 3.2 | 4.8 | 0.00 | 0.00 | 0.00 | 71 | 1012.4 |
| 20260507133805 | 16 | 26 | 0.0 | 1.6 | 0.00 | 0.00 | 0.00 | 72 | 1012.4 |
| 20260507133302 | 16 | 86 | 0.0 | 1.6 | 0.00 | 0.00 | 0.00 | 72 | 1012.3 |
| 20260507132800 | 16 | 89 | 0.0 | 0.0 | 0.00 | 0.00 | 0.00 | 72 | 1012.5 |
| 20260507132256 | 16 | 341 | 3.2 | 4.8 | 0.00 | 0.00 | 0.00 | 72 | 1012.3 |
| 20260507131753 | 16 | 345 | 4.8 | 4.8 | 0.00 | 0.00 | 0.00 | 72 | 1012.4 |
| 20260507131250 | 16 | 56 | 3.2 | 3.2 | 0.00 | 0.00 | 0.00 | 72 | 1012.5 |
| 20260507130747 | 16 | 54 | 1.6 | 1.6 | 0.00 | 0.00 | 0.00 | 73 | 1012.6 |
| 20260507130244 | 16 | 82 | 1.6 | 1.6 | 0.00 | 0.00 | 0.00 | 74 | 1012.5 |
| 20260507125743 | 16 | 54 | 1.6 | 1.6 | 0.00 | 0.00 | 0.00 | 74 | 1012.2 |
| 20260507125240 | 16 | 84 | 0.0 | 0.0 | 0.00 | 0.00 | 0.00 | 75 | 1012.3 |
| 20260507124737 | 16 | 84 | 0.0 | 0.0 | 0.00 | 0.00 | 0.00 | 74 | 1012.2 |
| 20260507124233 | 16 | 85 | 0.0 | 0.0 | 0.00 | 0.00 | 0.00 | 73 | 1012.3 |
| 20260507123732 | 16 | 84 | 0.0 | 1.6 | 0.00 | 0.00 | 0.00 | 74 | 1012.2 |
| 20260507123229 | 16 | 57 | 1.6 | 3.2 | 0.00 | 0.00 | 0.00 | 73 | 1012.5 |
| 20260507122724 | 16 | 48 | 1.6 | 1.6 | 0.00 | 0.00 | 0.00 | 74 | 1012.3 |
| 20260507122220 | 15 | 60 | 0.0 | 0.0 | 0.00 | 0.00 | 0.00 | 76 | 1012.4 |
| 20260507121716 | 15 | 28 | 3.2 | 3.2 | 0.00 | 0.00 | 0.00 | 75 | 1012.3 |
| 20260507121212 | 15 | 34 | 1.6 | 1.6 | 0.00 | 0.00 | 0.00 | 74 | 1012.3 |
| 20260507120709 | 15 | 81 | 0.0 | 0.0 | 0.00 | 0.00 | 0.00 | 76 | 1012.3 |
| 20260507120206 | 15 | 59 | 0.0 | 1.6 | 0.00 | 0.00 | 0.00 | 75 | 1012.5 |
| 20260507115702 | 16 | 108 | 1.6 | 1.6 | 0.00 | 0.00 | 0.00 | 78 | 1012.2 |
| 20260507115158 | 15 | 107 | 1.6 | 1.6 | 0.00 | 0.00 | 0.00 | 76 | 1012.3 |
| 20260507114653 | 15 | 108 | 0.0 | 0.0 | 0.00 | 0.00 | 0.00 | 78 | 1012.2 |
| 20260507114151 | 15 | 108 | 0.0 | 0.0 | 0.00 | 0.00 | 0.00 | 78 | 1012.3 |
| 20260507113648 | 15 | 108 | 0.0 | 0.0 | 0.00 | 0.00 | 0.00 | 77 | 1012.2 |
| 20260507113145 | 15 | 108 | 0.0 | 0.0 | 0.00 | 0.00 | 0.00 | 76 | 1012.3 |
| 20260507112643 | 15 | 109 | 0.0 | 0.0 | 0.00 | 0.00 | 0.00 | 79 | 1012.1 |
| 20260507112139 | 15 | 85 | 0.0 | 0.0 | 0.00 | 0.00 | 0.00 | 77 | 1011.8 |
| 20260507111637 | 15 | 85 | 0.0 | 0.0 | 0.00 | 0.00 | 0.00 | 78 | 1011.9 |
| 20260507111133 | 15 | 85 | 0.0 | 0.0 | 0.00 | 0.00 | 0.00 | 79 | 1011.9 |
| 20260507110629 | 15 | 85 | 0.0 | 0.0 | 0.00 | 0.00 | 0.00 | 81 | 1011.5 |
| 20260507110126 | 15 | 84 | 0.0 | 0.0 | 0.00 | 0.00 | 0.00 | 81 | 1011.3 |
| 20260507105623 | 15 | 84 | 0.0 | 0.0 | 0.00 | 0.00 | 0.00 | 80 | 1011.6 |
| 20260507105119 | 15 | 84 | 0.0 | 0.0 | 0.00 | 0.00 | 0.00 | 81 | 1011.5 |
| 20260507104617 | 15 | 94 | 0.0 | 0.0 | 0.00 | 0.00 | 0.00 | 81 | 1011.2 |
| 20260507104113 | 15 | 94 | 0.0 | 0.0 | 0.00 | 0.00 | 0.00 | 81 | 1011.5 |
| 20260507103609 | 15 | 93 | 0.0 | 1.6 | 0.00 | 0.00 | 0.00 | 79 | 1011.5 |
| 20260507103106 | 15 | 95 | 0.0 | 0.0 | 0.00 | 0.00 | 0.00 | 81 | 1011.5 |
| 20260507102602 | 15 | 96 | 0.0 | 0.0 | 0.00 | 0.00 | 0.00 | 81 | 1011.5 |
| 20260507102059 | 15 | 95 | 0.0 | 0.0 | 0.00 | 0.00 | 0.00 | 80 | 1011.3 |
| 20260507101554 | 15 | 129 | 0.0 | 0.0 | 0.00 | 0.00 | 0.00 | 82 | 1011.5 |
| 20260507101051 | 15 | 116 | 0.0 | 0.0 | 0.00 | 0.00 | 0.00 | 82 | 1011.4 |
| 20260507100548 | 15 | 89 | 0.0 | 0.0 | 0.00 | 0.00 | 0.00 | 83 | 1011.5 |
| 20260507100046 | 15 | 90 | 0.0 | 0.0 | 0.00 | 0.00 | 0.00 | 83 | 1011.2 |
| 20260507095544 | 15 | 97 | 0.0 | 0.0 | 0.00 | 0.00 | 0.00 | 85 | 1011.4 |
| 20260507095040 | 15 | 98 | 0.0 | 0.0 | 0.00 | 0.00 | 0.00 | 85 | 1011.6 |
| 20260507094536 | 15 | 98 | 0.0 | 0.0 | 0.00 | 0.00 | 0.00 | 85 | 1011.7 |
| 20260507094033 | 15 | 98 | 0.0 | 1.6 | 0.00 | 0.00 | 0.00 | 85 | 1011.8 |
| 20260507093531 | 15 | 98 | 0.0 | 1.6 | 0.00 | 0.00 | 0.00 | 83 | 1011.7 |
| 20260507093029 | 15 | 97 | 0.0 | 0.0 | 0.00 | 0.00 | 0.00 | 82 | 1011.2 |
| 20260507092525 | 15 | 97 | 0.0 | 0.0 | 0.00 | 0.00 | 0.00 | 82 | 1011.6 |
| 20260507092022 | 15 | 97 | 0.0 | 0.0 | 0.00 | 0.00 | 0.00 | 83 | 1011.4 |
| 20260507091519 | 15 | 92 | 1.6 | 1.6 | 0.00 | 0.00 | 0.00 | 82 | 1011.7 |
| 20260507091015 | 15 | 73 | 1.6 | 1.6 | 0.00 | 0.00 | 0.00 | 82 | 1011.2 |
| 20260507090511 | 15 | 147 | 1.6 | 1.6 | 0.00 | 0.00 | 0.00 | 82 | 1011.3 |
| 20260507090008 | 16 | 104 | 0.0 | 0.0 | 0.00 | 0.00 | 0.00 | 81 | 1010.6 |
| 20260507085505 | 16 | 117 | 0.0 | 0.0 | 0.00 | 0.00 | 0.00 | 81 | 1010.8 |
| 20260507085001 | 15 | 87 | 1.6 | 1.6 | 0.00 | 0.00 | 0.00 | 82 | 1011.0 |
| 20260507084458 | 16 | 80 | 0.0 | 1.6 | 0.00 | 0.00 | 0.00 | 83 | 1011.1 |
| 20260507083955 | 15 | 73 | 0.0 | 0.0 | 0.00 | 0.00 | 0.00 | 84 | 1011.3 |
| 20260507083452 | 16 | 96 | 1.6 | 1.6 | 0.00 | 0.00 | 0.00 | 85 | 1011.3 |
| 20260507082948 | 16 | 109 | 0.0 | 0.0 | 0.00 | 0.00 | 0.00 | 85 | 1011.4 |
| 20260507082444 | 16 | 113 | 0.0 | 0.0 | 0.00 | 0.00 | 0.00 | 85 | 1011.4 |
| 20260507081941 | 16 | 115 | 0.0 | 1.6 | 0.00 | 0.00 | 0.00 | 86 | 1011.2 |
| 20260507081437 | 16 | 124 | 0.0 | 0.0 | 0.00 | 0.00 | 0.00 | 86 | 1011.1 |
| 20260507080935 | 16 | 91 | 0.0 | 0.0 | 0.00 | 0.00 | 0.00 | 86 | 1011.2 |
| 20260507080430 | 16 | 91 | 1.6 | 1.6 | 0.00 | 0.00 | 0.00 | 88 | 1011.2 |
| 20260507075926 | 16 | 127 | 0.0 | 1.6 | 0.00 | 0.00 | 0.00 | 88 | 1011.4 |
| 20260507075422 | 16 | 125 | 0.0 | 0.0 | 0.00 | 0.00 | 0.00 | 86 | 1011.1 |
| 20260507074919 | 16 | 158 | 0.0 | 0.0 | 0.00 | 0.00 | 0.00 | 85 | 1011.2 |
| 20260507074416 | 16 | 158 | 0.0 | 0.0 | 0.00 | 0.00 | 0.00 | 85 | 1011.2 |
| 20260507073914 | 16 | 159 | 0.0 | 0.0 | 0.00 | 0.00 | 0.00 | 85 | 1011.4 |
| 20260507073410 | 16 | 159 | 0.0 | 0.0 | 0.00 | 0.00 | 0.00 | 82 | 1011.5 |
| 20260507072907 | 16 | 94 | 1.6 | 1.6 | 0.00 | 0.00 | 0.00 | 85 | 1011.2 |
| 20260507072404 | 16 | 93 | 0.0 | 0.0 | 0.00 | 0.00 | 0.00 | 87 | 1011.3 |
| 20260507071902 | 16 | 105 | 0.0 | 0.0 | 0.00 | 0.00 | 0.00 | 88 | 1010.9 |
| 20260507071359 | 16 | 104 | 0.0 | 0.0 | 0.00 | 0.00 | 0.00 | 88 | 1011.1 |
| 20260507070855 | 16 | 102 | 0.0 | 0.0 | 0.00 | 0.00 | 0.00 | 88 | 1011.2 |
| 20260507070353 | 16 | 88 | 0.0 | 1.6 | 0.00 | 0.00 | 0.00 | 87 | 1011.2 |
| 20260507065849 | 16 | 93 | 1.6 | 1.6 | 0.00 | 0.00 | 0.00 | 89 | 1010.9 |
| 20260507065346 | 17 | 127 | 1.6 | 3.2 | 0.00 | 0.00 | 0.00 | 92 | 1010.8 |
| 20260507064843 | 17 | 103 | 0.0 | 1.6 | 0.00 | 0.00 | 0.00 | 93 | 1011.1 |
| 20260507064341 | 17 | 104 | 0.0 | 0.0 | 0.00 | 0.00 | 0.00 | 93 | 1010.7 |
| 20260507063839 | 17 | 104 | 0.0 | 0.0 | 0.00 | 0.00 | 0.00 | 93 | 1011.2 |